| time (UTC) | temp C | wind direction | speed KPH | gust KPH | rain 1hr cm | rain 24hr cm | rain mn cm | humidity % | barometer mb |
| 20260507073040 | 5 | 135 | 6.4 | 14.5 | 0.05 | 0.23 | 0.23 | 85 | 1016.3 |
| 20260507071537 | 4 | 134 | 6.4 | 16.1 | 0.10 | 0.23 | 0.23 | 86 | 1016.1 |
| 20260507070039 | 5 | 145 | 6.4 | 12.9 | 0.15 | 0.23 | 0.23 | 85 | 1015.9 |
| 20260507064539 | 5 | 168 | 6.4 | 16.1 | 0.13 | 0.20 | 0.20 | 85 | 1015.9 |
| 20260507063042 | 5 | 144 | 3.2 | 6.4 | 0.10 | 0.18 | 0.18 | 84 | 1015.8 |
| 20260507061539 | 5 | 142 | 6.4 | 12.9 | 0.05 | 0.13 | 0.13 | 83 | 1016.0 |
| 20260507060038 | 5 | 158 | 9.7 | 19.3 | 0.00 | 0.08 | 0.08 | 81 | 1015.5 |
| 20260507054538 | 6 | 148 | 6.4 | 14.5 | 0.00 | 0.08 | 0.08 | 80 | 1015.3 |
| 20260507053039 | 6 | 159 | 4.8 | 17.7 | 0.00 | 0.08 | 0.08 | 81 | 1015.3 |
| 20260507051538 | 6 | 155 | 6.4 | 12.9 | 0.00 | 0.08 | 0.08 | 81 | 1015.2 |
| 20260507050041 | 5 | 148 | 3.2 | 8.0 | 0.00 | 0.08 | 0.08 | 81 | 1015.0 |
| 20260507044538 | 5 | 155 | 4.8 | 14.5 | 0.00 | 0.08 | 0.08 | 82 | 1015.1 |
| 20260507043054 | 5 | 120 | 6.4 | 19.3 | 0.03 | 0.08 | 0.08 | 82 | 1014.8 |
| 20260507041538 | 6 | 130 | 8.0 | 19.3 | 0.05 | 0.08 | 0.08 | 81 | 1014.9 |
| 20260507040035 | 6 | 167 | 6.4 | 12.9 | 0.05 | 0.08 | 0.08 | 81 | 1014.9 |
| 20260507034538 | 6 | 165 | 3.2 | 8.0 | 0.05 | 0.08 | 0.08 | 83 | 1015.0 |
| 20260507033043 | 6 | 245 | 4.8 | 14.5 | 0.03 | 0.05 | 0.05 | 80 | 1014.8 |
| 20260507031545 | 7 | 206 | 4.8 | 9.7 | 0.00 | 0.03 | 0.03 | 76 | 1014.6 |
| 20260507030036 | 7 | 238 | 6.4 | 14.5 | 0.00 | 0.03 | 0.03 | 70 | 1014.4 |
| 20260507024551 | 8 | 188 | 6.4 | 16.1 | 0.03 | 0.03 | 0.03 | 71 | 1014.1 |
| 20260507023037 | 7 | 204 | 6.4 | 12.9 | 0.03 | 0.03 | 0.03 | 73 | 1014.1 |
| 20260507021543 | 7 | 210 | 3.2 | 8.0 | 0.03 | 0.03 | 0.03 | 78 | 1013.9 |
| 20260507020048 | 7 | 217 | 0.0 | 11.3 | 0.03 | 0.03 | 0.03 | 81 | 1013.9 |
| 20260507014538 | 7 | 211 | 6.4 | 16.1 | 0.00 | 0.00 | 0.00 | 78 | 1013.8 |
| 20260507013038 | 7 | 170 | 3.2 | 12.9 | 0.00 | 0.00 | 0.00 | 80 | 1013.8 |
| 20260507011545 | 6 | 259 | 4.8 | 11.3 | 0.00 | 0.00 | 0.00 | 82 | 1013.8 |
| 20260507010038 | 6 | 256 | 1.6 | 6.4 | 0.00 | 0.00 | 0.00 | 85 | 1014.1 |
| 20260507004543 | 6 | 262 | 1.6 | 8.0 | 0.00 | 0.00 | 0.00 | 84 | 1013.7 |
| 20260507003037 | 6 | 233 | 3.2 | 8.0 | 0.00 | 0.00 | 0.00 | 84 | 1013.8 |
| 20260507001616 | 5 | 311 | 1.6 | 8.0 | 0.00 | 0.00 | 0.00 | 86 | 1013.7 |
| 20260507000042 | 5 | 349 | 1.6 | 4.8 | 0.00 | 0.00 | 0.00 | 85 | 1013.6 |
| 20260506234537 | 5 | 336 | 3.2 | 8.0 | 0.00 | 0.00 | 0.00 | 84 | 1013.5 |
| 20260506233042 | 6 | 315 | 3.2 | 8.0 | 0.00 | 0.00 | 0.00 | 83 | 1013.3 |
| 20260506231544 | 6 | 319 | 3.2 | 6.4 | 0.00 | 0.00 | 0.00 | 83 | 1013.3 |
| 20260506230052 | 6 | 274 | 1.6 | 12.9 | 0.00 | 0.00 | 0.00 | 82 | 1013.2 |
| 20260506224538 | 7 | 241 | 3.2 | 11.3 | 0.00 | 0.00 | 0.00 | 78 | 1013.4 |
| 20260506223037 | 7 | 249 | 4.8 | 19.3 | 0.00 | 0.00 | 0.00 | 75 | 1013.1 |
| 20260506221602 | 7 | 221 | 4.8 | 16.1 | 0.00 | 0.00 | 0.00 | 75 | 1013.1 |
| 20260506220036 | 7 | 258 | 4.8 | 17.7 | 0.00 | 0.00 | 0.00 | 77 | 1012.8 |
| 20260506214537 | 7 | 219 | 4.8 | 12.9 | 0.00 | 0.00 | 0.00 | 75 | 1012.9 |
| 20260506213039 | 8 | 245 | 3.2 | 16.1 | 0.00 | 0.00 | 0.00 | 67 | 1012.8 |
| 20260506211538 | 7 | 226 | 8.0 | 16.1 | 0.00 | 0.00 | 0.00 | 67 | 1012.7 |
| 20260506210054 | 7 | 221 | 9.7 | 17.7 | 0.00 | 0.00 | 0.00 | 67 | 1012.7 |
| 20260506204540 | 7 | 162 | 8.0 | 20.9 | 0.00 | 0.00 | 0.00 | 68 | 1012.5 |
| 20260506203044 | 7 | 200 | 8.0 | 17.7 | 0.00 | 0.00 | 0.00 | 70 | 1012.4 |
| 20260506201542 | 7 | 216 | 8.0 | 16.1 | 0.00 | 0.00 | 0.00 | 71 | 1012.4 |
| 20260506200040 | 7 | 242 | 8.0 | 19.3 | 0.00 | 0.00 | 0.00 | 71 | 1012.3 |
| 20260506194538 | 7 | 185 | 6.4 | 16.1 | 0.00 | 0.00 | 0.00 | 72 | 1012.1 |
| 20260506193043 | 7 | 153 | 8.0 | 17.7 | 0.00 | 0.00 | 0.00 | 72 | 1012.1 |
| 20260506191537 | 7 | 262 | 6.4 | 11.3 | 0.00 | 0.00 | 0.00 | 75 | 1012.1 |
| 20260506190038 | 7 | 229 | 3.2 | 8.0 | 0.00 | 0.00 | 0.00 | 75 | 1012.1 |
| 20260506184543 | 6 | 314 | 0.0 | 3.2 | 0.00 | 0.00 | 0.00 | 76 | 1012.1 |
| 20260506183038 | 6 | 0 | 0.0 | 3.2 | 0.00 | 0.00 | 0.00 | 77 | 1011.9 |
| 20260506181542 | 6 | 326 | 0.0 | 3.2 | 0.00 | 0.00 | 0.00 | 79 | 1011.9 |
| 20260506180038 | 6 | 311 | 1.6 | 4.8 | 0.00 | 0.00 | 0.00 | 77 | 1011.8 |
| 20260506174538 | 6 | 32 | 1.6 | 4.8 | 0.00 | 0.00 | 0.00 | 77 | 1011.8 |
| 20260506173043 | 6 | 13 | 0.0 | 3.2 | 0.00 | 0.00 | 0.00 | 76 | 1011.7 |
| 20260506171541 | 5 | 0 | 0.0 | 4.8 | 0.00 | 0.00 | 0.00 | 78 | 1011.7 |
| 20260506170046 | 5 | 18 | 0.0 | 3.2 | 0.00 | 0.00 | 0.00 | 77 | 1011.6 |
| 20260506164551 | 5 | 30 | 0.0 | 3.2 | 0.00 | 0.00 | 0.00 | 78 | 1011.4 |
| 20260506163051 | 5 | 345 | 1.6 | 3.2 | 0.00 | 0.00 | 0.00 | 79 | 1011.3 |
| 20260506161537 | 5 | 32 | 0.0 | 4.8 | 0.00 | 0.00 | 0.00 | 79 | 1011.3 |
| 20260506160037 | 5 | 0 | 0.0 | 1.6 | 0.00 | 0.00 | 0.00 | 79 | 1011.0 |
| 20260506154544 | 5 | 46 | 0.0 | 4.8 | 0.00 | 0.00 | 0.00 | 79 | 1010.9 |
| 20260506153037 | 5 | 0 | 0.0 | 1.6 | 0.00 | 0.00 | 0.00 | 80 | 1010.9 |
| 20260506151539 | 4 | 0 | 0.0 | 1.6 | 0.00 | 0.00 | 0.00 | 81 | 1010.9 |
| 20260506150043 | 4 | 0 | 0.0 | 1.6 | 0.00 | 0.00 | 0.00 | 81 | 1010.7 |
| 20260506144537 | 4 | 148 | 0.0 | 3.2 | 0.00 | 0.00 | 0.00 | 82 | 1010.6 |
| 20260506143039 | 4 | 195 | 0.0 | 3.2 | 0.00 | 0.00 | 0.00 | 82 | 1010.5 |
| 20260506141543 | 4 | 192 | 1.6 | 8.0 | 0.00 | 0.00 | 0.00 | 82 | 1010.6 |
| 20260506140038 | 4 | 171 | 3.2 | 8.0 | 0.00 | 0.00 | 0.00 | 81 | 1010.4 |
| 20260506134537 | 4 | 125 | 3.2 | 12.9 | 0.00 | 0.00 | 0.00 | 80 | 1010.6 |
| 20260506133049 | 4 | 137 | 1.6 | 4.8 | 0.00 | 0.00 | 0.00 | 80 | 1010.5 |
| 20260506131537 | 4 | 193 | 3.2 | 8.0 | 0.00 | 0.00 | 0.00 | 80 | 1010.5 |
| 20260506130037 | 5 | 227 | 3.2 | 8.0 | 0.00 | 0.00 | 0.00 | 79 | 1010.4 |
| 20260506124542 | 5 | 218 | 3.2 | 8.0 | 0.00 | 0.00 | 0.00 | 78 | 1010.3 |
| 20260506123039 | 5 | 195 | 4.8 | 12.9 | 0.00 | 0.00 | 0.00 | 78 | 1010.3 |
| 20260506121537 | 5 | 198 | 3.2 | 11.3 | 0.00 | 0.00 | 0.00 | 78 | 1010.1 |
| 20260506120053 | 5 | 208 | 1.6 | 9.7 | 0.00 | 0.00 | 0.00 | 77 | 1010.1 |
| 20260506114535 | 5 | 244 | 6.4 | 16.1 | 0.00 | 0.00 | 0.00 | 75 | 1010.1 |
| 20260506113037 | 5 | 193 | 8.0 | 16.1 | 0.00 | 0.00 | 0.00 | 75 | 1010.0 |
| 20260506111544 | 5 | 235 | 8.0 | 16.1 | 0.00 | 0.00 | 0.00 | 74 | 1010.0 |
| 20260506110038 | 5 | 184 | 4.8 | 16.1 | 0.00 | 0.00 | 0.00 | 74 | 1009.9 |
| 20260506104548 | 5 | 212 | 4.8 | 12.9 | 0.00 | 0.00 | 0.00 | 74 | 1009.9 |
| 20260506103048 | 5 | 169 | 4.8 | 11.3 | 0.00 | 0.00 | 0.00 | 73 | 1009.9 |
| 20260506101536 | 5 | 205 | 4.8 | 12.9 | 0.00 | 0.00 | 0.00 | 73 | 1009.9 |
| 20260506100035 | 5 | 199 | 4.8 | 11.3 | 0.00 | 0.00 | 0.00 | 72 | 1009.7 |
| 20260506094537 | 5 | 202 | 6.4 | 12.9 | 0.00 | 0.00 | 0.00 | 71 | 1009.5 |
| 20260506093038 | 6 | 210 | 4.8 | 16.1 | 0.00 | 0.00 | 0.00 | 70 | 1009.4 |
| 20260506091538 | 6 | 156 | 6.4 | 14.5 | 0.00 | 0.00 | 0.00 | 68 | 1009.3 |
| 20260506090037 | 6 | 200 | 8.0 | 20.9 | 0.00 | 0.00 | 0.00 | 66 | 1009.2 |
| 20260506084610 | 6 | 141 | 8.0 | 16.1 | 0.00 | 0.00 | 0.00 | 65 | 1009.0 |
| 20260506083039 | 6 | 223 | 6.4 | 19.3 | 0.00 | 0.00 | 0.00 | 64 | 1008.8 |
| 20260506081551 | 6 | 150 | 4.8 | 19.3 | 0.00 | 0.00 | 0.00 | 63 | 1008.6 |